�������l�o���
Date,Time,MP-1(��Sv/h),MP-2(��Sv/h),MP-3(��Sv/h),MP-4(��Sv/h),MP-5(��Sv/h),MP-6(��Sv/h),MP-7(��Sv/h),MP-8(��Sv/h),����,����(m/s),���J
2016/12/29,00:00,1.088,1.821,1.186,2.072,1.425,0.564,1.031,0.958,���k��,3.8,��
2016/12/29,00:10,1.088,1.818,1.187,2.072,1.428,0.561,1.031,0.957,���쐼,3.3,��
2016/12/29,00:20,1.087,1.818,1.187,2.070,1.425,0.564,1.031,0.958,��,3.8,��
2016/12/29,00:30,1.090,1.818,1.184,2.069,1.423,0.563,1.032,0.955,���쐼,3.1,��
2016/12/29,00:40,1.086,1.819,1.187,2.071,1.424,0.562,1.030,0.958,���쐼,2.6,��
2016/12/29,00:50,1.087,1.818,1.185,2.072,1.423,0.562,1.031,0.958,���쐼,2.6,��
2016/12/29,01:00,1.088,1.818,1.185,2.071,1.426,0.564,1.031,0.960,���쐼,1.7,��
2016/12/29,01:10,1.086,1.818,1.185,2.073,1.425,0.563,1.030,0.959,���쐼,0.8,��
2016/12/29,01:20,1.089,1.816,1.185,2.071,1.424,0.564,1.029,0.957,��,1.2,��
2016/12/29,01:30,1.088,1.817,1.186,2.070,1.424,0.564,1.029,0.957,��쐼,1.1,��
2016/12/29,01:40,1.087,1.817,1.185,2.069,1.422,0.565,1.031,0.958,��쐼,1.1,��
2016/12/29,01:50,1.087,1.818,1.186,2.067,1.421,0.564,1.032,0.957,-,CALM,��
2016/12/29,02:00,1.087,1.819,1.185,2.072,1.424,0.564,1.030,0.958,�쐼,0.8,��
2016/12/29,02:10,1.087,1.817,1.186,2.071,1.423,0.563,1.031,0.956,��,0.9,��
2016/12/29,02:20,1.088,1.819,1.184,2.073,1.425,0.564,1.030,0.958,���k��,0.6,��
2016/12/29,02:30,1.085,1.820,1.185,2.071,1.423,0.563,1.030,0.958,-,CALM,��
2016/12/29,02:40,1.088,1.816,1.183,2.070,1.424,0.564,1.031,0.956,���쐼,1.1,��
2016/12/29,02:50,1.086,1.816,1.184,2.069,1.423,0.562,1.030,0.958,�쐼,1.2,��
2016/12/29,03:00,1.088,1.817,1.186,2.073,1.421,0.562,1.031,0.958,��쐼,1.7,��
2016/12/29,03:10,1.088,1.816,1.186,2.072,1.424,0.562,1.031,0.957,��쐼,1.5,��
2016/12/29,03:20,1.084,1.818,1.184,2.072,1.423,0.563,1.029,0.959,��쐼,1.7,��
2016/12/29,03:30,1.085,1.820,1.187,2.074,1.421,0.564,1.030,0.956,��쐼,2.0,��
2016/12/29,03:40,1.087,1.816,1.185,2.071,1.422,0.562,1.031,0.960,�쐼,3.0,��
2016/12/29,03:50,1.086,1.815,1.185,2.072,1.422,0.562,1.031,0.959,�쐼,2.3,��
2016/12/29,04:00,1.086,1.818,1.184,2.072,1.422,0.562,1.029,0.959,�쐼,2.9,��
2016/12/29,04:10,1.086,1.816,1.187,2.071,1.422,0.562,1.030,0.957,���쐼,3.7,��
2016/12/29,04:20,1.087,1.818,1.186,2.070,1.422,0.563,1.032,0.960,���쐼,2.3,��
2016/12/29,04:30,1.087,1.816,1.184,2.073,1.424,0.563,1.031,0.955,���쐼,2.2,��
2016/12/29,04:40,1.086,1.815,1.185,2.070,1.423,0.564,1.031,0.957,��쐼,1.5,��
2016/12/29,04:50,1.086,1.815,1.186,2.071,1.420,0.563,1.032,0.958,���쐼,2.0,��
2016/12/29,05:00,1.086,1.818,1.183,2.072,1.424,0.563,1.032,0.958,���쐼,3.5,��
2016/12/29,05:10,1.088,1.815,1.184,2.071,1.420,0.564,1.031,0.959,�쐼,3.9,��
2016/12/29,05:20,1.087,1.816,1.186,2.070,1.419,0.563,1.030,0.957,���쐼,4.1,��
2016/12/29,05:30,1.087,1.817,1.186,2.071,1.421,0.564,1.030,0.958,���쐼,4.2,��
2016/12/29,05:40,1.088,1.816,1.185,2.073,1.420,0.562,1.030,0.959,���쐼,4.0,��
2016/12/29,05:50,1.086,1.816,1.185,2.072,1.422,0.565,1.033,0.958,��,4.2,��
2016/12/29,06:00,1.087,1.815,1.185,2.074,1.420,0.564,1.032,0.959,��,4.1,��
2016/12/29,06:10,1.088,1.819,1.187,2.072,1.424,0.564,1.033,0.956,��,3.3,��
2016/12/29,06:20,1.087,1.816,1.185,2.072,1.422,0.565,1.032,0.958,���쐼,3.2,��
2016/12/29,06:30,1.089,1.816,1.186,2.073,1.425,0.562,1.031,0.960,���쐼,2.9,��
2016/12/29,06:40,1.089,1.820,1.187,2.071,1.424,0.565,1.033,0.960,���쐼,2.3,��
2016/12/29,06:50,1.088,1.819,1.186,2.074,1.423,0.565,1.032,0.959,���쐼,2.3,��
2016/12/29,07:00,1.089,1.818,1.184,2.076,1.422,0.565,1.033,0.957,�쐼,2.9,��
2016/12/29,07:10,1.089,1.817,1.188,2.073,1.422,0.566,1.032,0.958,�쐼,3.5,��
2016/12/29,07:20,1.090,1.817,1.188,2.074,1.420,0.565,1.035,0.957,��쐼,3.2,��
2016/12/29,07:30,1.090,1.816,1.188,2.075,1.423,0.566,1.033,0.960,��쐼,3.2,��
2016/12/29,07:40,1.087,1.818,1.189,2.075,1.424,0.565,1.032,0.957,�쐼,3.7,��
2016/12/29,07:50,1.087,1.819,1.188,2.074,1.422,0.564,1.034,0.959,��쐼,3.9,��
2016/12/29,08:00,1.091,1.817,1.187,2.076,1.423,0.565,1.033,0.958,��쐼,4.0,��
2016/12/29,08:10,1.092,1.817,1.188,2.074,1.424,0.564,1.034,0.959,��,3.8,��
2016/12/29,08:20,1.091,1.820,1.188,2.077,1.427,0.565,1.035,0.959,��,3.3,��
2016/12/29,08:30,1.093,1.819,1.188,2.078,1.425,0.564,1.034,0.960,��,3.2,��
2016/12/29,08:40,1.091,1.819,1.191,2.077,1.425,0.565,1.034,0.960,��쐼,4.4,��
2016/12/29,08:50,1.092,1.820,1.190,2.079,1.428,0.567,1.035,0.959,��쐼,4.6,��
2016/12/29,09:00,1.092,1.822,1.190,2.078,1.422,0.564,1.035,0.959,�쐼,4.8,��
2016/12/29,09:10,1.094,1.822,1.191,2.075,1.428,0.564,1.035,0.962,�쐼,5.3,��
2016/12/29,09:20,1.092,1.821,1.190,2.078,1.429,0.566,1.035,0.959,�쐼,4.5,��
2016/12/29,09:30,1.093,1.821,1.191,2.078,1.430,0.565,1.036,0.961,��쐼,4.6,��
2016/12/29,09:40,1.094,1.822,1.190,2.079,1.429,0.567,1.036,0.960,��쐼,5.5,��
2016/12/29,09:50,1.094,1.825,1.194,2.079,1.430,0.567,1.036,0.962,�쐼,5.7,��
2016/12/29,10:00,1.098,1.824,1.195,2.079,1.430,0.568,1.038,0.963,��쐼,6.2,��
2016/12/29,10:10,1.099,1.824,1.192,2.078,1.428,0.566,1.037,0.960,��쐼,5.6,��
2016/12/29,10:20,1.097,1.825,1.193,2.081,1.431,0.567,1.036,0.962,��쐼,5.8,��
2016/12/29,10:30,1.095,1.826,1.194,2.081,1.431,0.567,1.037,0.962,�쐼,5.4,��
2016/12/29,10:40,1.097,1.828,1.192,2.082,1.430,0.567,1.036,0.959,�쐼,4.9,��
2016/12/29,10:50,1.099,1.827,1.196,2.081,1.433,0.569,1.036,0.962,��쐼,4.1,��
2016/12/29,11:00,1.101,1.827,1.195,2.081,1.433,0.568,1.036,0.962,��쐼,3.7,��
2016/12/29,11:10,1.097,1.829,1.194,2.084,1.434,0.568,1.036,0.962,��쐼,2.9,��
2016/12/29,11:20,1.099,1.827,1.193,2.082,1.432,0.570,1.039,0.962,��쓌,1.7,��
2016/12/29,11:30,1.099,1.824,1.196,2.084,1.433,0.569,1.037,0.963,��쐼,2.3,��
2016/12/29,11:40,1.101,1.828,1.197,2.086,1.436,0.568,1.038,0.963,��쐼,1.2,��
2016/12/29,11:50,1.102,1.831,1.195,2.082,1.433,0.568,1.038,0.962,-,CALM,��
2016/12/29,12:00,1.099,1.826,1.198,2.084,1.436,0.568,1.039,0.962,���k��,2.0,��
2016/12/29,12:10,1.103,1.829,1.198,2.082,1.437,0.570,1.035,0.962,-,CALM,��
2016/12/29,12:20,1.102,1.828,1.195,2.081,1.436,0.570,1.038,0.961,��쐼,3.8,��
2016/12/29,12:30,1.102,1.831,1.198,2.085,1.431,0.571,1.040,0.962,�쐼,7.7,��
2016/12/29,12:40,1.102,1.832,1.197,2.085,1.435,0.569,1.039,0.965,�쐼,6.0,��
2016/12/29,12:50,1.105,1.829,1.198,2.083,1.432,0.571,1.039,0.964,�쐼,6.5,��
2016/12/29,13:00,1.103,1.830,1.200,2.085,1.434,0.572,1.041,0.964,��쐼,5.6,��
2016/12/29,13:10,1.100,1.827,1.201,2.088,1.436,0.570,1.041,0.962,�쐼,5.4,��
2016/12/29,13:20,1.105,1.827,1.198,2.087,1.436,0.572,1.041,0.964,���쐼,4.2,��
2016/12/29,13:30,1.103,1.828,1.196,2.087,1.438,0.572,1.040,0.962,�쐼,3.8,��
2016/12/29,13:40,1.103,1.826,1.198,2.086,1.436,0.571,1.040,0.962,��,2.2,��
2016/12/29,13:50,1.102,1.824,1.199,2.087,1.435,0.572,1.042,0.962,��,2.3,��
2016/12/29,14:00,1.105,1.831,1.197,2.086,1.437,0.573,1.040,0.962,�k�k��,3.0,��
2016/12/29,14:10,1.104,1.828,1.200,2.089,1.436,0.572,1.041,0.964,�k�k��,3.8,��
2016/12/29,14:20,1.106,1.829,1.199,2.086,1.439,0.572,1.040,0.965,���쐼,3.4,��
2016/12/29,14:30,1.108,1.830,1.202,2.087,1.437,0.573,1.042,0.965,��,3.6,��
2016/12/29,14:40,1.105,1.830,1.201,2.086,1.438,0.573,1.040,0.964,�쐼,2.6,��
2016/12/29,14:50,1.106,1.829,1.203,2.086,1.439,0.572,1.043,0.965,��쐼,2.3,��
2016/12/29,15:00,1.108,1.835,1.203,2.092,1.437,0.573,1.041,0.963,���쐼,2.8,��
2016/12/29,15:10,1.105,1.834,1.202,2.086,1.438,0.573,1.043,0.965,�쐼,4.8,��
2016/12/29,15:20,1.107,1.830,1.204,2.090,1.437,0.572,1.043,0.963,���쐼,6.4,��
2016/12/29,15:30,1.106,1.832,1.199,2.088,1.439,0.572,1.041,0.963,��,6.6,��
2016/12/29,15:40,1.106,1.834,1.202,2.087,1.438,0.573,1.041,0.966,���쐼,4.6,��
2016/12/29,15:50,1.106,1.834,1.201,2.089,1.439,0.573,1.042,0.963,��,5.3,��
2016/12/29,16:00,1.104,1.832,1.201,2.088,1.437,0.572,1.040,0.965,��,4.3,��
2016/12/29,16:10,1.105,1.831,1.200,2.086,1.435,0.573,1.042,0.965,��,5.5,��
2016/12/29,16:20,1.104,1.831,1.199,2.087,1.435,0.572,1.041,0.965,���k��,5.8,��
2016/12/29,16:30,1.107,1.833,1.200,2.088,1.439,0.571,1.041,0.963,���k��,4.3,��
2016/12/29,16:40,1.105,1.831,1.200,2.084,1.438,0.572,1.040,0.964,�k��,4.5,��
2016/12/29,16:50,1.107,1.833,1.201,2.086,1.439,0.572,1.038,0.962,�k��,4.4,��
2016/12/29,17:00,1.106,1.833,1.199,2.086,1.438,0.572,1.042,0.961,�k��,3.7,��
2016/12/29,17:10,1.103,1.833,1.202,2.088,1.439,0.571,1.040,0.962,�k��,6.1,��
2016/12/29,17:20,1.105,1.833,1.200,2.089,1.438,0.572,1.040,0.963,���k��,6.8,��
2016/12/29,17:30,1.105,1.830,1.202,2.087,1.440,0.570,1.039,0.965,���k��,7.2,��
2016/12/29,17:40,1.104,1.829,1.201,2.084,1.437,0.572,1.042,0.962,���k��,7.1,��
2016/12/29,17:50,1.104,1.831,1.201,2.087,1.440,0.570,1.040,0.964,���k��,5.0,��
2016/12/29,18:00,1.105,1.832,1.200,2.087,1.436,0.573,1.042,0.963,�k��,4.1,��
2016/12/29,18:10,1.104,1.829,1.199,2.088,1.437,0.570,1.039,0.962,�k��,6.0,��
2016/12/29,18:20,1.105,1.826,1.200,2.087,1.440,0.572,1.042,0.963,�k��,7.1,��
2016/12/29,18:30,1.101,1.831,1.199,2.088,1.439,0.568,1.040,0.963,���k��,7.0,��
2016/12/29,18:40,1.102,1.830,1.198,2.086,1.437,0.570,1.040,0.962,���k��,7.4,��
2016/12/29,18:50,1.103,1.828,1.197,2.083,1.436,0.570,1.039,0.963,���k��,8.3,��
2016/12/29,19:00,1.104,1.833,1.198,2.087,1.436,0.568,1.040,0.965,���k��,7.7,��
2016/12/29,19:10,1.104,1.829,1.197,2.088,1.439,0.568,1.039,0.963,���k��,7.2,��
2016/12/29,19:20,1.105,1.827,1.199,2.089,1.435,0.572,1.040,0.964,���k��,7.8,��
2016/12/29,19:30,1.102,1.834,1.198,2.086,1.437,0.571,1.040,0.962,�k��,6.6,��
2016/12/29,19:40,1.100,1.832,1.198,2.087,1.435,0.569,1.039,0.962,�k��,4.1,��
2016/12/29,19:50,1.100,1.833,1.196,2.085,1.436,0.569,1.039,0.964,�k,3.7,��
2016/12/29,20:00,1.102,1.831,1.197,2.086,1.438,0.570,1.038,0.963,�k,4.9,��
2016/12/29,20:10,1.100,1.831,1.198,2.084,1.434,0.570,1.038,0.962,�k�k��,4.9,��
2016/12/29,20:20,1.100,1.830,1.196,2.083,1.440,0.568,1.037,0.964,�k�k��,3.9,��
2016/12/29,20:30,1.100,1.827,1.196,2.085,1.435,0.568,1.038,0.962,�k��,4.3,��
2016/12/29,20:40,1.098,1.829,1.198,2.083,1.435,0.569,1.036,0.962,�k�k��,5.1,��
2016/12/29,20:50,1.099,1.828,1.198,2.087,1.433,0.569,1.038,0.964,�k��,5.6,��
2016/12/29,21:00,1.100,1.828,1.198,2.086,1.437,0.568,1.037,0.964,�k��,8.9,��
2016/12/29,21:10,1.099,1.829,1.199,2.084,1.437,0.568,1.036,0.961,�k��,12.7,��
2016/12/29,21:20,1.101,1.832,1.197,2.086,1.436,0.569,1.039,0.963,�k��,11.4,��
2016/12/29,21:30,1.096,1.827,1.196,2.086,1.437,0.569,1.040,0.964,�k��,11.1,��
2016/12/29,21:40,1.098,1.827,1.199,2.085,1.435,0.569,1.039,0.962,�k��,14.1,��
2016/12/29,21:50,1.099,1.829,1.195,2.085,1.437,0.566,1.039,0.962,�k��,11.1,��
2016/12/29,22:00,1.098,1.829,1.195,2.085,1.434,0.566,1.039,0.963,�k��,10.2,��
2016/12/29,22:10,1.099,1.832,1.196,2.087,1.435,0.567,1.038,0.962,�k��,9.2,��
2016/12/29,22:20,1.099,1.831,1.195,2.086,1.438,0.567,1.037,0.963,�k��,9.0,��
2016/12/29,22:30,1.101,1.830,1.198,2.084,1.437,0.567,1.036,0.962,���k��,9.2,��
2016/12/29,22:40,1.097,1.831,1.194,2.084,1.436,0.567,1.039,0.961,�k��,8.3,��
2016/12/29,22:50,1.098,1.830,1.196,2.085,1.435,0.567,1.039,0.961,�k��,6.5,��
2016/12/29,23:00,1.099,1.832,1.198,2.086,1.437,0.569,1.039,0.963,�k��,10.0,��
2016/12/29,23:10,1.099,1.829,1.198,2.087,1.436,0.569,1.038,0.962,�k��,8.0,��
2016/12/29,23:20,1.098,1.828,1.198,2.086,1.437,0.567,1.038,0.964,�k��,8.1,��
2016/12/29,23:30,1.098,1.829,1.198,2.082,1.436,0.568,1.037,0.963,�k��,10.3,��
2016/12/29,23:40,1.099,1.830,1.198,2.086,1.434,0.566,1.039,0.962,�k��,9.5,��
2016/12/29,23:50,1.098,1.829,1.195,2.088,1.434,0.567,1.038,0.963,�k��,7.6,��
